Sparta, TN

3:10 AM CST on December 07, 2019 (GMT -0600)
Upper Cumberland Regional

Weather History for KSRB - October, 2019

Change the Weather History Date:

Friday, October 4, 2019

  Actual Average (WUND) Record (WUND)
Temperature  
Mean Temperature 72 °F -  
Max Temperature 84 °F - - (-1)
Min Temperature 59 °F - - (-1)
Cooling Degree Days 6    
Growing Degree Days 22 (Base 50)    
Moisture  
Dew Point 57 °F    
Average Humidity 62    
Maximum Humidity 94    
Minimum Humidity 32    
Precipitation  
Precipitation 0.00 in - - ()
Sea Level Pressure  
Sea Level Pressure 30.13 in    
Wind  
Wind Speed 3 mph ()    
Max Wind Speed 13 mph    
Max Gust Speed 18 mph    
Visibility 10.0 miles    
Events      
Averages and records for this station are not official NWS values.
T = Trace of Precipitation, MM = Missing Value Source: Averaged Metar Reports

Daily Weather History Graph

Daily Weather History Graph

Search for Another Location

Airport or City:

Astronomy

Oct. 04, 2019 Rise Set
Actual Time 6:39 AM CDT 6:21 PM CDT
Civil Twilight 6:13 AM CDT 6:47 PM CDT
Nautical Twilight 5:44 AM CDT 7:16 PM CDT
Astronomical Twilight 5:14 AM CDT 7:46 PM CDT
Moon 1:00 PM CDT (10/4) 11:00 PM CDT (10/4)
Length of Visible Light 12h 33m
Length of Day
11h 42m
Waxing Crescent, 40% of the Moon is Illuminated
Oct 4
Waxing Crescent
Oct 5
First Quarter
Oct 13
Full
Oct 21
Last Quarter
Oct 27
New

Hourly Weather History & Observations

Time (CDT) Temp. Heat Index Dew Point Humidity Pressure Visibility Wind Dir Wind Speed Gust Speed Precip Events Conditions
12:15 AM 66.2 °F - 62.6 °F 88% 30.09 in 10.0 mi Calm Calm - N/A   Partly Cloudy
12:35 AM 66.2 °F - 64.4 °F 94% 30.09 in 10.0 mi Calm Calm - N/A   Partly Cloudy
12:55 AM 71.6 °F - 66.2 °F 83% 30.09 in 10.0 mi Calm Calm - N/A   Partly Cloudy
1:15 AM 73.4 °F - 66.2 °F 78% 30.09 in 10.0 mi Calm Calm - N/A   Partly Cloudy
1:35 AM 69.8 °F - 66.2 °F 88% 30.10 in 10.0 mi ENE 3.5 mph - N/A   Clear
1:55 AM 68.0 °F - 64.4 °F 88% 30.10 in 10.0 mi Calm Calm - N/A   Clear
2:15 AM 68.0 °F - 64.4 °F 88% 30.11 in 10.0 mi Calm Calm - N/A   Clear
2:35 AM 68.0 °F - 64.4 °F 88% 30.10 in 10.0 mi Calm Calm - N/A   Partly Cloudy
2:55 AM 69.8 °F - 66.2 °F 88% 30.10 in 10.0 mi Calm Calm - N/A   Partly Cloudy
3:15 AM 68.0 °F - 66.2 °F 94% 30.11 in 10.0 mi Calm Calm - N/A   Scattered Clouds
3:35 AM 69.8 °F - 66.2 °F 88% 30.11 in 10.0 mi Calm Calm - N/A   Partly Cloudy
3:55 AM 68.0 °F - 66.2 °F 94% 30.11 in 10.0 mi Calm Calm - N/A   Partly Cloudy
4:15 AM 69.8 °F - 66.2 °F 88% 30.12 in 10.0 mi NW 4.6 mph - N/A   Scattered Clouds
4:35 AM 69.8 °F - 66.2 °F 88% 30.13 in 10.0 mi Calm Calm - N/A   Partly Cloudy
4:55 AM 69.8 °F - 66.2 °F 88% 30.13 in 10.0 mi NNW 3.5 mph - N/A   Clear
5:15 AM 68.0 °F - 66.2 °F 94% 30.13 in 10.0 mi NNW 3.5 mph - N/A   Clear
5:35 AM 68.0 °F - 66.2 °F 94% 30.14 in 10.0 mi Calm Calm - N/A   Clear
5:55 AM 68.0 °F - 66.2 °F 94% 30.14 in 10.0 mi NNW 3.5 mph - N/A   Partly Cloudy
6:15 AM 68.0 °F - 64.4 °F 88% 30.15 in 10.0 mi Calm Calm - N/A   Mostly Cloudy
6:35 AM 68.0 °F - 64.4 °F 88% 30.15 in 10.0 mi Calm Calm - N/A   Partly Cloudy
6:55 AM 66.2 °F - 64.4 °F 94% 30.15 in 10.0 mi Calm Calm - N/A   Clear
7:15 AM 68.0 °F - 64.4 °F 88% 30.16 in 10.0 mi NNW 4.6 mph - N/A   Clear
7:35 AM 68.0 °F - 64.4 °F 88% 30.16 in 10.0 mi Calm Calm - N/A   Clear
7:55 AM 68.0 °F - 64.4 °F 88% 30.17 in 10.0 mi North 4.6 mph - N/A   Clear
8:15 AM 69.8 °F - 62.6 °F 78% 30.17 in 10.0 mi Variable 5.8 mph - N/A   Clear
8:35 AM 71.6 °F - 60.8 °F 69% 30.17 in 10.0 mi Variable 6.9 mph - N/A   Clear
8:55 AM 71.6 °F - 60.8 °F 69% 30.17 in 10.0 mi Variable 6.9 mph - N/A   Clear
9:15 AM 73.4 °F - 60.8 °F 65% 30.17 in 10.0 mi Calm Calm 12.7 mph N/A   Clear
9:35 AM 73.4 °F - 60.8 °F 65% 30.17 in 10.0 mi Variable 6.9 mph - N/A   Clear
9:55 AM 73.4 °F - 60.8 °F 65% 30.18 in 10.0 mi NE 8.1 mph - N/A   Clear
10:15 AM 75.2 °F - 60.8 °F 61% 30.17 in 9.0 mi Variable 6.9 mph - N/A   Clear
10:35 AM 75.2 °F - 60.8 °F 61% 30.17 in 10.0 mi NNE 6.9 mph - N/A   Clear
10:55 AM 77.0 °F - 60.8 °F 57% 30.17 in 10.0 mi Variable 5.8 mph - N/A   Clear
11:15 AM 77.0 °F - 60.8 °F 57% 30.16 in 10.0 mi North 8.1 mph - N/A   Clear
11:35 AM 78.8 °F - 60.8 °F 54% 30.16 in 10.0 mi NE 8.1 mph - N/A   Clear
11:55 AM 78.8 °F - 59.0 °F 51% 30.15 in 10.0 mi Variable 5.8 mph 13.8 mph N/A   Clear
12:15 PM 80.6 °F 81.1 °F 59.0 °F 48% 30.15 in 9.0 mi Variable 5.8 mph 17.3 mph N/A   Clear
12:35 PM 82.4 °F 82.0 °F 57.2 °F 42% 30.14 in 10.0 mi North 10.4 mph - N/A   Clear
12:55 PM 82.4 °F 81.7 °F 55.4 °F 39% 30.14 in 10.0 mi NE 12.7 mph - N/A   Clear
1:15 PM 82.4 °F 81.7 °F 55.4 °F 39% 30.13 in 10.0 mi NE 9.2 mph - N/A   Clear
1:35 PM 82.4 °F 81.7 °F 55.4 °F 39% 30.12 in 10.0 mi Variable 6.9 mph 15.0 mph N/A   Clear
1:55 PM 82.4 °F 82.0 °F 57.2 °F 42% 30.12 in 10.0 mi Variable 5.8 mph 12.7 mph N/A   Clear
2:15 PM 84.2 °F 83.0 °F 55.4 °F 37% 30.11 in 10.0 mi Variable 4.6 mph 12.7 mph N/A   Clear
2:35 PM 82.4 °F 81.7 °F 55.4 °F 39% 30.11 in 10.0 mi NNE 9.2 mph 16.1 mph N/A   Clear
2:55 PM 82.4 °F 81.7 °F 55.4 °F 39% 30.11 in 10.0 mi Variable 6.9 mph 13.8 mph N/A   Clear
3:15 PM 82.4 °F 81.4 °F 53.6 °F 37% 30.10 in 10.0 mi NNW 8.1 mph 16.1 mph N/A   Clear
3:35 PM 82.4 °F 81.4 °F 53.6 °F 37% 30.11 in 10.0 mi North 9.2 mph 16.1 mph N/A   Clear
3:55 PM 82.4 °F 81.4 °F 53.6 °F 37% 30.10 in 10.0 mi NNE 10.4 mph - N/A   Clear
4:15 PM 82.4 °F 81.4 °F 53.6 °F 37% 30.10 in 10.0 mi North 10.4 mph 16.1 mph N/A   Clear
4:35 PM 82.4 °F - 51.8 °F 35% 30.10 in 10.0 mi Variable 6.9 mph 12.7 mph N/A   Clear
4:55 PM 80.6 °F - 50.0 °F 34% 30.11 in 10.0 mi NE 9.2 mph - N/A   Clear
5:15 PM 80.6 °F - 48.2 °F 32% 30.11 in 10.0 mi NNE 8.1 mph 15.0 mph N/A   Clear
5:35 PM 78.8 °F - 48.2 °F 34% 30.11 in 10.0 mi NNE 8.1 mph 18.4 mph N/A   Clear
5:55 PM 77.0 °F - 48.2 °F 36% 30.11 in 10.0 mi NNE 8.1 mph - N/A   Clear
6:15 PM 75.2 °F - 48.2 °F 38% 30.11 in 10.0 mi Variable 4.6 mph - N/A   Clear
6:35 PM 75.2 °F - 48.2 °F 38% 30.12 in 10.0 mi Variable 4.6 mph - N/A   Clear
6:55 PM 71.6 °F - 50.0 °F 46% 30.12 in 10.0 mi Calm Calm - N/A   Clear
7:15 PM 71.6 °F - 48.2 °F 43% 30.12 in 10.0 mi Calm Calm - N/A   Clear
7:35 PM 71.6 °F - 48.2 °F 43% 30.12 in 10.0 mi NNE 4.6 mph - N/A   Clear
7:55 PM 71.6 °F - 48.2 °F 43% 30.13 in 10.0 mi North 4.6 mph - N/A   Clear
8:15 PM 69.8 °F - 48.2 °F 46% 30.13 in 10.0 mi NNE 6.9 mph - N/A   Clear
8:35 PM 69.8 °F - 48.2 °F 46% 30.14 in 10.0 mi NNE 5.8 mph - N/A   Clear
8:55 PM 68.0 °F - 48.2 °F 49% 30.14 in 10.0 mi Variable 6.9 mph - N/A   Clear
9:15 PM 68.0 °F - 48.2 °F 49% 30.14 in 10.0 mi NNE 4.6 mph - N/A   Clear
9:35 PM 66.2 °F - 48.2 °F 52% 30.14 in 10.0 mi NNE 3.5 mph - N/A   Clear
9:55 PM 66.2 °F - 48.2 °F 52% 30.14 in 10.0 mi NNE 5.8 mph - N/A   Clear
10:15 PM 64.4 °F - 46.4 °F 52% 30.14 in 10.0 mi NNE 4.6 mph - N/A   Clear
10:35 PM 62.6 °F - 48.2 °F 59% 30.14 in 10.0 mi Calm Calm - N/A   Clear
10:55 PM 59.0 °F - 48.2 °F 67% 30.13 in 10.0 mi Calm Calm - N/A   Clear
11:15 PM 59.0 °F - 46.4 °F 63% 30.13 in 10.0 mi Calm Calm - N/A   Clear
11:35 PM 59.0 °F - 48.2 °F 67% 30.13 in 10.0 mi Calm Calm - N/A   Clear
11:55 PM 59.0 °F - 46.4 °F 63% 30.12 in 10.0 mi NNE 4.6 mph - N/A   Clear